Freeport, IL

6:47 AM CDT on June 27, 2017 (GMT -0500)
Albertus

Weather History for KFEP - October, 2012

Change the Weather History Date:

Monday, October 15, 2012

  Actual Average Record
Temperature  
Mean Temperature 50 °F -  
Max Temperature 60 °F 62 °F 81 °F (1975)
Min Temperature 40 °F 40 °F 24 °F (2006)
Degree Days  
Heating Degree Days 16    
Moisture  
Dew Point 39 °F    
Average Humidity 72    
Maximum Humidity 90    
Minimum Humidity 46    
Precipitation  
Precipitation 0.00 in - - ()
Sea Level Pressure  
Sea Level Pressure 29.93 in    
Wind  
Wind Speed 7 mph (West)    
Max Wind Speed 12 mph    
Max Gust Speed 18 mph    
Visibility 10 miles    
Events      
Averages and records for this station are not official NWS values.
T = Trace of Precipitation, MM = Missing Value Source: NWS Daily Summary

Daily Weather History Graph

Daily Weather History Graph

Search for Another Location

Airport or City:

Trip Planner

Search our weather history database for the weather conditions in past years. The results will help you decide how hot, cold, wet, or windy it might be!

Date:

Astronomy

Oct. 15, 2012 Rise Set
Actual Time 7:11 AM CDT 6:15 PM CDT
Civil Twilight 6:43 AM CDT 6:43 PM CDT
Nautical Twilight 6:10 AM CDT 7:16 PM CDT
Astronomical Twilight 5:38 AM CDT 7:48 PM CDT
Moon 7:23 AM CDT (10/15) 6:13 PM CDT (10/15)
Length of Visible Light 12h 00m
Length of Day
11h 04m
New Moon, 0% of the Moon is Illuminated
Oct 15
New Moon
Oct 21
First Quarter
Oct 29
Full
Nov 6
Last Quarter
Nov 13
New

Hourly Weather History & Observations

Time (CDT) Temp. Windchill Dew Point Humidity Pressure Visibility Wind Dir Wind Speed Gust Speed Precip Events Conditions
12:15 AM 46.4 °F 41.9 °F 42.1 °F 85% 29.84 in 10.0 mi West 9.2 mph - N/A   Overcast
12:35 AM 46.4 °F 41.9 °F 42.8 °F 87% 29.84 in 10.0 mi West 9.2 mph - N/A   Overcast
12:55 AM 43.9 °F 39.3 °F 40.5 °F 88% 29.84 in 10.0 mi WSW 8.1 mph - N/A   Scattered Clouds
1:15 AM 43.7 °F 39.7 °F 40.5 °F 88% 29.85 in 10.0 mi WSW 6.9 mph - N/A   Clear
1:35 AM 43.7 °F 40.3 °F 40.6 °F 89% 29.85 in 10.0 mi WSW 5.8 mph - N/A   Clear
1:55 AM 43.7 °F 39.7 °F 40.8 °F 90% 29.85 in 10.0 mi WSW 6.9 mph - N/A   Clear
2:15 AM 43.7 °F 39.1 °F 40.6 °F 89% 29.86 in 10.0 mi West 8.1 mph - N/A   Clear
2:35 AM 43.7 °F 38.6 °F 40.3 °F 88% 29.86 in 10.0 mi West 9.2 mph - N/A   Clear
2:55 AM 43.7 °F 38.6 °F 40.1 °F 87% 29.86 in 10.0 mi West 9.2 mph - N/A   Clear
3:15 AM 41.9 °F 36.9 °F 38.5 °F 88% 29.86 in 10.0 mi West 8.1 mph - N/A   Clear
3:35 AM 41.9 °F 36.3 °F 38.3 °F 87% 29.86 in 10.0 mi West 9.2 mph - N/A   Clear
3:55 AM 41.4 °F 35.7 °F 37.8 °F 87% 29.87 in 10.0 mi West 9.2 mph - N/A   Clear
4:15 AM 41.9 °F 36.9 °F 38.1 °F 86% 29.88 in 10.0 mi West 8.1 mph - N/A   Clear
4:35 AM 41.9 °F 36.3 °F 37.8 °F 85% 29.88 in 10.0 mi West 9.2 mph - N/A   Clear
4:55 AM 41.2 °F 36.0 °F 37.4 °F 86% 29.89 in 10.0 mi West 8.1 mph - N/A   Clear
5:15 AM 41.2 °F 36.0 °F 37.4 °F 86% 29.89 in 10.0 mi West 8.1 mph - N/A   Clear
5:35 AM 41.0 °F 35.8 °F 37.4 °F 87% 29.90 in 10.0 mi WSW 8.1 mph - N/A   Clear
5:55 AM 41.2 °F 37.3 °F 37.4 °F 86% 29.90 in 10.0 mi West 5.8 mph - N/A   Clear
6:15 AM 41.2 °F 38.2 °F 37.4 °F 86% 29.90 in 10.0 mi West 4.6 mph - N/A   Clear
6:35 AM 41.2 °F 36.6 °F 37.4 °F 86% 29.91 in 10.0 mi West 6.9 mph - N/A   Clear
6:55 AM 41.2 °F 36.6 °F 37.4 °F 86% 29.91 in 10.0 mi West 6.9 mph - N/A   Clear
7:15 AM 40.8 °F 35.6 °F 37.0 °F 86% 29.92 in 10.0 mi West 8.1 mph - N/A   Clear
7:35 AM 41.2 °F 36.6 °F 37.4 °F 86% 29.92 in 10.0 mi WSW 6.9 mph - N/A   Clear
7:55 AM 41.2 °F 36.6 °F 36.9 °F 85% 29.92 in 10.0 mi West 6.9 mph - N/A   Clear
8:15 AM 41.7 °F 38.8 °F 37.2 °F 84% 29.93 in 10.0 mi West 4.6 mph - N/A   Clear
8:35 AM 43.7 °F 42.1 °F 37.8 °F 80% 29.94 in 10.0 mi West 3.5 mph - N/A   Clear
8:55 AM 45.3 °F 41.1 °F 38.1 °F 76% 29.94 in 10.0 mi WNW 8.1 mph - N/A   Clear
9:15 AM 46.4 °F 41.9 °F 38.7 °F 74% 29.95 in 10.0 mi WNW 9.2 mph - N/A   Clear
9:35 AM 47.8 °F - 38.7 °F 70% 29.95 in 10.0 mi WNW 9.2 mph - N/A   Clear
9:55 AM 51.3 °F - 40.3 °F 66% 29.96 in 10.0 mi WNW 9.2 mph - N/A   Clear
10:15 AM 52.0 °F - 39.6 °F 63% 29.96 in 10.0 mi WNW 9.2 mph - N/A   Clear
10:35 AM 54.0 °F - 39.4 °F 58% 29.97 in 10.0 mi WNW 11.5 mph - N/A   Clear
10:55 AM 54.0 °F - 38.7 °F 56% 29.96 in 10.0 mi NW 8.1 mph - N/A   Clear
11:15 AM 54.0 °F - 37.4 °F 54% 29.97 in 10.0 mi NW 10.4 mph - N/A   Clear
11:35 AM 55.4 °F - 39.2 °F 54% 29.97 in 10.0 mi WNW 10.4 mph 16.1 mph N/A   Clear
11:55 AM 56.5 °F - 39.9 °F 54% 29.98 in 10.0 mi West 10.4 mph 16.1 mph N/A   Clear
12:15 PM 56.7 °F - 39.6 °F 53% 29.98 in 10.0 mi West 11.5 mph - N/A   Clear
12:35 PM 59.0 °F - 41.0 °F 51% 29.97 in 10.0 mi WNW 8.1 mph - N/A   Clear
12:55 PM 59.0 °F - 39.7 °F 49% 29.97 in 10.0 mi NW 8.1 mph - N/A   Clear
1:15 PM 59.0 °F - 39.4 °F 48% 29.97 in 10.0 mi WNW 9.2 mph - N/A   Clear
1:35 PM 59.0 °F - 38.7 °F 47% 29.97 in 10.0 mi WNW 11.5 mph - N/A   Clear
1:55 PM 59.0 °F - 38.3 °F 46% 29.96 in 10.0 mi West 9.2 mph 17.3 mph N/A   Clear
2:15 PM 59.5 °F - 38.5 °F 46% 29.96 in 10.0 mi West 11.5 mph 18.4 mph N/A   Clear
2:35 PM 59.9 °F - 39.2 °F 46% 29.96 in 10.0 mi West 9.2 mph - N/A   Clear
2:55 PM 59.9 °F - 39.2 °F 46% 29.95 in 10.0 mi West 9.2 mph - N/A   Clear
3:15 PM 59.7 °F - 39.0 °F 46% 29.96 in 10.0 mi West 10.4 mph - N/A   Clear
3:35 PM 59.4 °F - 38.8 °F 47% 29.95 in 10.0 mi West 6.9 mph - N/A   Clear
3:55 PM 59.9 °F - 40.3 °F 48% 29.95 in 10.0 mi WNW 4.6 mph - N/A   Clear
4:15 PM 59.0 °F - 38.8 °F 47% 29.96 in 10.0 mi West 6.9 mph - N/A   Clear
4:35 PM 59.0 °F - 40.3 °F 50% 29.95 in 10.0 mi West 6.9 mph - N/A   Clear
4:55 PM 59.0 °F - 39.6 °F 49% 29.95 in 10.0 mi West 4.6 mph - N/A   Clear
5:15 PM 59.0 °F - 38.5 °F 47% 29.95 in 10.0 mi West 4.6 mph - N/A   Clear
5:35 PM 59.0 °F - 40.6 °F 51% 29.95 in 10.0 mi West 4.6 mph - N/A   Clear
5:55 PM 56.5 °F - 39.6 °F 53% 29.95 in 10.0 mi West 3.5 mph - N/A   Clear
6:15 PM 54.3 °F - 39.6 °F 57% 29.95 in 10.0 mi Calm Calm - N/A   Clear
6:35 PM 54.0 °F - 40.8 °F 61% 29.94 in 10.0 mi Calm Calm - N/A   Clear
6:55 PM 51.4 °F - 39.7 °F 64% 29.94 in 10.0 mi Calm Calm - N/A   Clear
7:15 PM 46.9 °F - 39.9 °F 77% 29.95 in 10.0 mi Calm Calm - N/A   Clear
7:35 PM 46.6 °F - 39.9 °F 78% 29.95 in 10.0 mi Calm Calm - N/A   Clear
7:55 PM 46.8 °F - 39.7 °F 77% 29.96 in 10.0 mi Calm Calm - N/A   Clear
8:15 PM 43.9 °F 42.3 °F 39.2 °F 84% 29.95 in 10.0 mi SSE 3.5 mph - N/A   Clear
8:35 PM 44.1 °F - 39.2 °F 83% 29.95 in 10.0 mi Calm Calm - N/A   Clear
8:55 PM 43.3 °F 41.7 °F 38.3 °F 82% 29.95 in 10.0 mi SE 3.5 mph - N/A   Clear
9:15 PM 45.0 °F 43.5 °F 39.2 °F 80% 29.95 in 10.0 mi South 3.5 mph - N/A   Clear
9:35 PM 43.7 °F - 38.5 °F 82% 29.95 in 10.0 mi Calm Calm - N/A   Clear
9:55 PM 43.2 °F 39.7 °F 38.7 °F 84% 29.96 in 10.0 mi SSE 5.8 mph - N/A   Clear
10:15 PM 41.9 °F - 37.8 °F 85% 29.96 in 10.0 mi Calm Calm - N/A   Clear
10:35 PM 43.7 °F 42.1 °F 38.5 °F 82% 29.95 in 10.0 mi SSE 3.5 mph - N/A   Clear
10:55 PM 41.0 °F 38.0 °F 37.4 °F 87% 29.95 in 10.0 mi SE 4.6 mph - N/A   Clear
11:15 PM 41.7 °F 38.0 °F 37.0 °F 83% 29.95 in 10.0 mi SSE 5.8 mph - N/A   Clear
11:35 PM 41.2 °F 36.0 °F 37.4 °F 86% 29.95 in 10.0 mi SSE 8.1 mph - N/A   Clear
11:55 PM 45.0 °F 40.6 °F 39.6 °F 81% 29.95 in 10.0 mi SSE 8.1 mph - N/A   Clear